Location: Kikino
(54.4440°N, 112.0940°W)
Time: 17:47:13
(UTC+00:00)

A-11 Canister half - Pass Details

Date: 19 May 2024
Orbit: 1525 x 1683 km, 47.3° (Epoch: 12 June)

Event Time Altitude Azimuth Distance (km) Brightness Sun altitude
Rises 06:03:58 0° 226° (SW) 4,701 11.3 -13.7°
Reaches altitude 10° 06:07:10 10° 220° (SW) 3,736 10.7 -13.8°
Maximum altitude 06:15:51 43° 154° (SSE) 2,121 9.3 -14.2°
Drops below altitude 10° 06:24:49 10° 87° (E) 3,859 11.0 -14.6°
Sets 06:28:11 0° 82° (E) 4,869 11.6 -14.7°
